• In Moldova, Republic
  • List of Countries
  • For 7 days
  • Water Temperature
  • Satellite Maps
  • Weather Map
  • Weather Widgets
  • user-avatar
    Login

    Hourly Weather Naftalan

    Today, 26 June, Monday

    Time Temperature Precipitation Wind Pressure Humidity
    00:00 +26°C° 0 mm 5 mps 763 mmHg 71%
    01:00 +25°C° 0 mm 5 mps 763 mmHg 71%
    02:00 +25°C° 0 mm 5 mps 763 mmHg 71%
    03:00 +25°C° 0 mm 5 mps 763 mmHg 70%
    04:00 +26°C° 0 mm 5 mps 764 mmHg 68%
    05:00 +26°C° 0 mm 5 mps 764 mmHg 66%
    06:00 +27°C° 0 mm 5 mps 765 mmHg 64%
    07:00 +28°C° 0 mm 5 mps 765 mmHg 59%
    08:00 +29°C° 0 mm 6 mps 765 mmHg 53%
    09:00 +32°C° 0 mm 6 mps 765 mmHg 47%
    10:00 +32°C° 0 mm 6 mps 765 mmHg 46%
    11:00 +33°C° 0 mm 6 mps 765 mmHg 44%
    12:00 +34°C° 0 mm 6 mps 765 mmHg 42%
    13:00 +33°C° 0 mm 6 mps 765 mmHg 42%
    14:00 +33°C° 0 mm 6 mps 764 mmHg 43%
    15:00 +33°C° 0 mm 6 mps 764 mmHg 44%
    16:00 +32°C° 0 mm 6 mps 764 mmHg 47%
    17:00 +30°C° 0 mm 5 mps 764 mmHg 51%
    18:00 +29°C° 0 mm 5 mps 764 mmHg 55%
    19:00 +28°C° 0 mm 5 mps 764 mmHg 61%
    20:00 +27°C° 0 mm 4 mps 765 mmHg 67%
    21:00 +26°C° 0 mm 3 mps 765 mmHg 73%
    22:00 +25°C° 0 mm 3 mps 765 mmHg 75%
    23:00 +25°C° 0 mm 3 mps 764 mmHg 77%

    Tomorrow, 27 June, Tuesday

    Time Temperature Precipitation Wind Pressure Humidity
    00:00 +24°C° 0 mm 2 mps 764 mmHg 79%
    01:00 +24°C° 0 mm 2 mps 764 mmHg 81%
    02:00 +23°C° 0 mm 2 mps 764 mmHg 82%
    03:00 +23°C° 0 mm 2 mps 764 mmHg 84%
    04:00 +24°C° 0 mm 2 mps 764 mmHg 81%
    05:00 +25°C° 0 mm 2 mps 764 mmHg 77%
    06:00 +26°C° 0 mm 2 mps 764 mmHg 74%
    07:00 +27°C° 0 mm 2 mps 763 mmHg 66%
    08:00 +29°C° 0 mm 3 mps 763 mmHg 59%
    09:00 +30°C° 0 mm 3 mps 763 mmHg 52%
    10:00 +33°C° 0 mm 3 mps 763 mmHg 48%
    11:00 +34°C° 0 mm 4 mps 762 mmHg 43%
    12:00 +35°C° 0 mm 4 mps 762 mmHg 39%
    13:00 +35°C° 0 mm 5 mps 761 mmHg 38%
    14:00 +35°C° 0 mm 5 mps 761 mmHg 38%
    15:00 +35°C° 0 mm 5 mps 760 mmHg 38%
    16:00 +34°C° 0 mm 5 mps 760 mmHg 44%
    17:00 +32°C° 0 mm 5 mps 760 mmHg 49%
    18:00 +30°C° 0 mm 5 mps 760 mmHg 55%
    19:00 +29°C° 0 mm 5 mps 760 mmHg 62%
    20:00 +27°C° 0 mm 4 mps 760 mmHg 69%
    21:00 +26°C° 0 mm 4 mps 760 mmHg 77%
    22:00 +26°C° 0 mm 3 mps 760 mmHg 79%
    23:00 +25°C° 0 mm 2 mps 760 mmHg 82%

    Day after tomorrow, 28 June, Wednesday

    Time Temperature Precipitation Wind Pressure Humidity
    00:00 +24°C° 0 mm 2 mps 760 mmHg 85%
    01:00 +24°C° 0 mm 2 mps 760 mmHg 86%
    02:00 +24°C° 0 mm 2 mps 760 mmHg 87%
    03:00 +24°C° 0 mm 2 mps 759 mmHg 88%
    04:00 +25°C° 0 mm 2 mps 759 mmHg 84%
    05:00 +26°C° 0 mm 2 mps 760 mmHg 79%
    06:00 +27°C° 0 mm 1 mps 760 mmHg 75%
    07:00 +29°C° 0 mm 1 mps 760 mmHg 67%
    08:00 +31°C° 0 mm 1 mps 759 mmHg 58%
    09:00 +32°C° 0 mm 1 mps 759 mmHg 49%
    10:00 +35°C° 0 mm 2 mps 759 mmHg 44%
    11:00 +36°C° 0 mm 2 mps 759 mmHg 38%
    12:00 +38°C° 0 mm 3 mps 759 mmHg 33%
    13:00 +38°C° 0 mm 4 mps 758 mmHg 31%
    14:00 +40°C° 0 mm 4 mps 757 mmHg 29%
    15:00 +40°C° 0 mm 4 mps 757 mmHg 28%
    16:00 +37°C° 0 mm 4 mps 757 mmHg 30%
    17:00 +36°C° 0 mm 4 mps 757 mmHg 33%
    18:00 +35°C° 0 mm 4 mps 757 mmHg 36%
    19:00 +33°C° 0 mm 3 mps 757 mmHg 43%
    20:00 +30°C° 0 mm 2 mps 758 mmHg 50%
    21:00 +28°C° 0 mm 2 mps 758 mmHg 57%
    22:00 +28°C° 0 mm 2 mps 758 mmHg 58%
    23:00 +27°C° 0 mm 2 mps 758 mmHg 58%

    29 June, Thursday

    Time Temperature Precipitation Wind Pressure Humidity
    00:00 +27°C° 0 mm 3 mps 758 mmHg 59%
    01:00 +26°C° 0 mm 3 mps 758 mmHg 59%
    02:00 +26°C° 0 mm 3 mps 758 mmHg 58%
    03:00 +25°C° 0 mm 3 mps 758 mmHg 58%
    04:00 +27°C° 0 mm 3 mps 758 mmHg 54%
    05:00 +28°C° 0 mm 3 mps 758 mmHg 50%
    06:00 +29°C° 0 mm 3 mps 758 mmHg 46%
    07:00 +32°C° 0 mm 4 mps 758 mmHg 39%
    08:00 +34°C° 0 mm 4 mps 759 mmHg 32%
    09:00 +36°C° 0 mm 4 mps 759 mmHg 25%
    10:00 +37°C° 0 mm 5 mps 759 mmHg 22%
    11:00 +40°C° 0 mm 5 mps 758 mmHg 20%
    12:00 +41°C° 0 mm 5 mps 758 mmHg 17%
    13:00 +41°C° 0 mm 5 mps 758 mmHg 17%
    14:00 +41°C° 0 mm 6 mps 758 mmHg 17%
    15:00 +41°C° 0 mm 6 mps 757 mmHg 17%
    16:00 +40°C° 0 mm 5 mps 757 mmHg 19%
    17:00 +37°C° 0 mm 5 mps 757 mmHg 21%
    18:00 +36°C° 0 mm 4 mps 757 mmHg 23%
    19:00 +34°C° 0 mm 4 mps 758 mmHg 30%
    20:00 +30°C° 0 mm 3 mps 758 mmHg 36%
    21:00 +28°C° 0 mm 2 mps 758 mmHg 43%
    22:00 +27°C° 0 mm 2 mps 758 mmHg 45%
    23:00 +27°C° 0 mm 2 mps 758 mmHg 48%

    30 June, Friday

    Time Temperature Precipitation Wind Pressure Humidity
    00:00 +26°C° 0 mm 3 mps 758 mmHg 50%
    01:00 +25°C° 0 mm 3 mps 758 mmHg 52%
    02:00 +25°C° 0 mm 3 mps 758 mmHg 53%
    03:00 +24°C° 0 mm 3 mps 758 mmHg 55%
    04:00 +26°C° 0 mm 3 mps 758 mmHg 49%
    05:00 +27°C° 0 mm 3 mps 758 mmHg 44%
    06:00 +29°C° 0 mm 4 mps 758 mmHg 38%
    07:00 +32°C° 0 mm 4 mps 758 mmHg 34%
    08:00 +34°C° 0 mm 5 mps 758 mmHg 30%
    09:00 +36°C° 0 mm 5 mps 759 mmHg 26%
    10:00 +38°C° 0 mm 6 mps 759 mmHg 24%
    11:00 +39°C° 0 mm 7 mps 758 mmHg 23%
    12:00 +41°C° 0 mm 8 mps 758 mmHg 21%
    13:00 +40°C° 0 mm 9 mps 758 mmHg 22%
    14:00 +40°C° 0 mm 9 mps 758 mmHg 23%
    15:00 +39°C° 0 mm 10 mps 758 mmHg 25%
    16:00 +38°C° 0 mm 9 mps 758 mmHg 27%
    17:00 +37°C° 0 mm 9 mps 759 mmHg 29%
    18:00 +35°C° 0 mm 9 mps 759 mmHg 31%
    19:00 +33°C° 0 mm 8 mps 759 mmHg 35%
    20:00 +32°C° 0 mm 8 mps 760 mmHg 40%
    21:00 +29°C° 0 mm 7 mps 760 mmHg 45%
    22:00 +28°C° 0 mm 6 mps 760 mmHg 46%
    23:00 +28°C° 0 mm 6 mps 760 mmHg 47%

    1 July, Saturday

    Time Temperature Precipitation Wind Pressure Humidity
    00:00 +27°C° 0 mm 5 mps 760 mmHg 48%
    01:00 +27°C° 0 mm 5 mps 760 mmHg 49%
    02:00 +27°C° 0 mm 5 mps 760 mmHg 50%
    03:00 +26°C° 0 mm 4 mps 761 mmHg 51%
    04:00 +27°C° 0 mm 4 mps 761 mmHg 50%
    05:00 +28°C° 0 mm 4 mps 761 mmHg 48%
    06:00 +28°C° 0 mm 4 mps 761 mmHg 46%
    07:00 +32°C° 0 mm 4 mps 761 mmHg 40%
    08:00 +34°C° 0 mm 4 mps 762 mmHg 34%
    09:00 +36°C° 0 mm 4 mps 762 mmHg 28%
    10:00 +37°C° 0 mm 5 mps 762 mmHg 25%
    11:00 +40°C° 0 mm 7 mps 761 mmHg 21%
    12:00 +41°C° 0 mm 8 mps 761 mmHg 18%
    13:00 +41°C° 0 mm 8 mps 761 mmHg 19%
    14:00 +40°C° 0 mm 8 mps 761 mmHg 21%
    15:00 +40°C° 0 mm 8 mps 760 mmHg 22%
    16:00 +38°C° 0 mm 8 mps 761 mmHg 24%
    17:00 +36°C° 0 mm 7 mps 761 mmHg 27%
    18:00 +35°C° 0 mm 6 mps 761 mmHg 29%
    19:00 +33°C° 0 mm 6 mps 761 mmHg 34%
    20:00 +30°C° 0 mm 5 mps 762 mmHg 39%
    21:00 +28°C° 0 mm 5 mps 762 mmHg 44%
    22:00 +27°C° 0 mm 4 mps 762 mmHg 47%
    23:00 +27°C° 0 mm 4 mps 762 mmHg 50%
    Show more